Terminal Aerodrome Forecast
Issued by NWS Charleston, SC

Home | Current Version | Previous Version | Text Only | Print | Product List | Glossary On
Versions: 1 2 3 4 5 6 7 8 9 10 11 12 13 14
000
FTUS42 KCHS 231900 AAA
TAFSAV
TAF AMD
KSAV 231953Z 2320/2418 03012G18KT P6SM SCT018 BKN035
      TEMPO 2320/2322 BKN025
     FM240200 01014G20KT P6SM SCT015 OVC035
     FM241300 03013KT P6SM SCT015 BKN025=

USA.gov is the U.S. government's official web portal to all federal, state and local government web resources and services.